Weather History for Newport News, VA

Change the Weather History Date:

Monday, January 6, 2014

  Actual Average Record
Temperature  
Mean Temperature 48 °F -  
Max Temperature 66 °F 44 °F 73 °F (1950)
Min Temperature 26 °F 28 °F 13 °F (1959)
Degree Days  
Heating Degree Days 17    
Moisture  
Dew Point 43 °F    
Average Humidity 69    
Maximum Humidity 88    
Minimum Humidity 34    
Precipitation  
Precipitation 0.10 in - - ()
Sea Level Pressure  
Sea Level Pressure 29.70 in    
Wind  
Wind Speed 14 mph (WSW)    
Max Wind Speed 23 mph    
Max Gust Speed 44 mph    
Visibility 10 miles    
Events Rain , Snow    
Averages and records for this station are not official NWS values.
T = Trace of Precipitation, MM = Missing Value Source: NWS Daily Summary

Daily Weather History Graph

Daily Weather History Graph

Search for Another Location

Airport:

Trip Planner

Search our weather history database for the weather conditions in past years. The results will help you decide how hot, cold, wet, or windy it might be!

Date:

Astronomy

Jan. 06, 2014 Rise Set
Actual Time 7:20 AM EST 5:03 PM EST
Civil Twilight 6:51 AM EST 5:32 PM EST
Nautical Twilight 6:18 AM EST 6:05 PM EST
Astronomical Twilight 5:47 AM EST 6:36 PM EST
Moon 10:42 AM EST (1/6) 11:25 PM EST (1/6)
Length of Visible Light 10h 41m
Length of Day
9h 43m
Waxing Crescent, 34% of the Moon is Illuminated
Jan 6
Waxing Crescent
Jan 7
First Quarter
Jan 15
Full
Jan 24
Last Quarter
Jan 30
New

Hourly Weather History & Observations

Time (EST) Temp. Windchill Dew Point Humidity Pressure Visibility Wind Dir Wind Speed Gust Speed Precip Events Conditions
12:54 AM 64.9 °F - 60.1 °F 84% 29.75 in 10.0 mi South 12.7 mph - 0.00 in Rain Light Rain
1:54 AM 66.0 °F - 61.0 °F 84% 29.72 in 10.0 mi SSW 13.8 mph 20.7 mph 0.00 in   Overcast
2:28 AM 66.2 °F - 60.8 °F 83% 29.70 in 10.0 mi SSW 12.7 mph - N/A   Overcast
2:54 AM 66.0 °F - 60.1 °F 81% 29.67 in 10.0 mi South 11.5 mph - N/A   Mostly Cloudy
3:21 AM 64.4 °F - 60.8 °F 88% 29.65 in 10.0 mi South 11.5 mph - N/A   Mostly Cloudy
3:35 AM 64.4 °F - 60.8 °F 88% 29.64 in 10.0 mi South 13.8 mph - N/A   Scattered Clouds
3:54 AM 64.9 °F - 60.1 °F 84% 29.63 in 10.0 mi South 11.5 mph - N/A   Clear
4:39 AM 66.2 °F - 60.8 °F 83% 29.61 in 10.0 mi South 16.1 mph 26.5 mph N/A   Mostly Cloudy
4:54 AM 66.0 °F - 60.1 °F 81% 29.61 in 10.0 mi SSW 17.3 mph 23.0 mph N/A   Overcast
5:54 AM 66.9 °F - 60.1 °F 79% 29.59 in 8.0 mi SSW 19.6 mph 31.1 mph 0.00 in Rain Light Rain
6:54 AM 66.9 °F - 60.1 °F 79% 29.57 in 9.0 mi SSW 19.6 mph 24.2 mph 0.03 in Rain Light Rain
7:54 AM 66.9 °F - 57.9 °F 73% 29.57 in 10.0 mi SW 23.0 mph 43.7 mph 0.00 in   Overcast
8:07 AM 66.2 °F - 57.2 °F 73% 29.58 in 10.0 mi SW 19.6 mph 29.9 mph N/A   Overcast
8:54 AM 66.9 °F - 57.0 °F 70% 29.59 in 10.0 mi SW 20.7 mph 25.3 mph N/A   Overcast
9:10 AM 57.2 °F - 51.8 °F 82% 29.62 in 3.0 mi WNW 16.1 mph 24.2 mph 0.01 in Rain Light Rain
9:54 AM 54.0 °F - 46.9 °F 77% 29.64 in 10.0 mi West 13.8 mph 28.8 mph 0.02 in Rain Light Rain
10:54 AM 52.0 °F - 45.0 °F 77% 29.65 in 10.0 mi West 12.7 mph 17.3 mph 0.01 in   Overcast
11:08 AM 51.8 °F - 44.6 °F 76% 29.66 in 9.0 mi WNW 13.8 mph 19.6 mph N/A   Overcast
12:54 PM 48.0 °F - 42.1 °F 80% 29.64 in 6.0 mi West 10.4 mph 19.6 mph 0.04 in Rain Light Rain
1:10 PM 48.2 °F - 42.8 °F 82% 29.65 in 10.0 mi West 11.5 mph 18.4 mph 0.00 in Rain Light Rain
1:36 PM 48.2 °F - 39.2 °F 71% 29.66 in 10.0 mi West 10.4 mph 23.0 mph 0.00 in   Overcast
1:47 PM 48.2 °F - 42.8 °F 82% 29.65 in 10.0 mi WNW 10.4 mph - 0.00 in   Overcast
1:54 PM 48.0 °F - 41.0 °F 77% 29.65 in 10.0 mi WNW 10.4 mph - 0.00 in   Overcast
2:54 PM 48.9 °F - 34.0 °F 56% 29.68 in 10.0 mi WNW 8.1 mph - N/A   Mostly Cloudy
3:54 PM 46.9 °F - 35.1 °F 63% 29.70 in 10.0 mi NNE 5.8 mph - N/A   Partly Cloudy
4:54 PM 46.9 °F - 32.0 °F 56% 29.73 in 10.0 mi West 15.0 mph 19.6 mph N/A   Overcast
5:54 PM 44.1 °F 37.1 °F 23.0 °F 43% 29.78 in 10.0 mi West 15.0 mph 24.2 mph N/A   Overcast
6:54 PM 41.0 °F 33.1 °F 19.9 °F 43% 29.83 in 10.0 mi West 15.0 mph 27.6 mph N/A   Clear
7:54 PM 37.9 °F 28.5 °F 18.0 °F 45% 29.88 in 10.0 mi West 17.3 mph 29.9 mph N/A   Clear
8:54 PM 36.0 °F 26.0 °F 14.0 °F 41% 29.92 in 9.0 mi WNW 17.3 mph 27.6 mph 0.00 in Snow Light Snow
9:54 PM 34.0 °F 22.7 °F 12.9 °F 42% 29.96 in 10.0 mi WNW 19.6 mph 31.1 mph 0.00 in Snow Light Snow
10:54 PM 30.0 °F 17.5 °F 5.0 °F 35% 30.01 in 9.0 mi WNW 19.6 mph 28.8 mph 0.00 in Snow Light Snow
11:54 PM 26.1 °F 12.3 °F 1.0 °F 34% 30.05 in 9.0 mi NW 19.6 mph 31.1 mph 0.00 in Snow Light Snow